Regional Weather Roundup
Issued by NWS

Home | Current Version | Previous Version | Text Only | Print | Product List | Glossary On
Versions: 1 2 3 4 5 6 7 8 9 10 11 12 13 14 15 16 17 18 19 20 21 22 23 24 25 26 27 28 29 30 31 32 33 34 35 36 37 38 39 40 41 42 43 44 45 46 47 48 49 50
000
ASHW40 PHFO 262130
RWRHI

WEATHER ROUNDUP FOR HAWAII
NATIONAL WEATHER SERVICE HONOLULU HI
1100 AM HST SUN APR 26 2015

THIS IS AN AUTOMATED REPORT THAT HAS NOT BEEN QUALITY CONTROLLED.

NOTE..."FAIR" INDICATES FEW OR NO CLOUDS BELOW 12,000 FEET WITH NO
SIGNIFICANT WEATHER AND/OR OBSTRUCTIONS TO VISIBILITY.

* - THESE SITES REPORT LIMITED FIELDS

HIZ001>004-262200-
KAUAI-NIIHAU-

CITY           SKY/WX    TMP DP  RH WIND       PRES   REMARKS
LIHUE APT      LGT RAIN  73  70  90 N14       30.04S FOG
PORT ALLEN*      N/A     79 N/A N/A SE8         N/A
POIPU*           N/A     75 N/A N/A NE6G12      N/A
PRINCEVILLE*     N/A     72 N/A N/A MISG        N/A
KOKOLE POINT*  NOT AVBL
MOLOAA DAIRY*  NOT AVBL
WAIMEA HTS*    NOT AVBL
PUU OPAE*      NOT AVBL
PUU LUA*       NOT AVBL
MAKAHA RIDGE*    N/A     73  68  83 NE3G9       N/A
$$

HIZ005>011-262200-
OAHU-

CITY           SKY/WX    TMP DP  RH WIND       PRES   REMARKS
HONOLULU       MOSUNNY   77  70  79 SW12      30.02S
KALAELOA       MOSUNNY   80  69  69 S8        30.03S
KANEOHE MCB    CLOUDY    83  69  62 NE10      29.99S
WHEELER FIELD  FAIR      81  66  60 VRB7      30.02
BELLOWS*         N/A    N/A N/A N/A S6G14       N/A
KAHUKU*          N/A    N/A N/A N/A NW3G12      N/A
WHEELER*       NOT AVBL
WAIANAE HARBOR NOT AVBL
DILLINGHAM*      N/A     82  72  69 MISG        N/A
KAHUKU TRN*      N/A     72  68  88 W3G10       N/A
KAWAILOA*        N/A     73  68  83 NW3G13      N/A
KII*             N/A     75  70  83 NW12        N/A
MAKUA RANGE*     N/A     79  72  78 NW7G13      N/A
OAHU FOREST NW NOT AVBL
SCHOFIELD BRK*   N/A     70  57  64 MISG        N/A
SCHOFIELD S*   NOT AVBL
WAIANAE VLY*   NOT AVBL
KUAOKALA*      NOT AVBL
HONOULIUULI*   NOT AVBL
MOKUOLOE IS*   NOT AVBL
PALEHUA*       NOT AVBL
WAIAWA PHB*    NOT AVBL
$$

HIZ012>013-262200-
MOLOKAI-

CITY           SKY/WX    TMP DP  RH WIND       PRES   REMARKS
MOLOKAI AIRPT  PTSUNNY   80  68  66 S12       30.04S
KALAUPAPA      NOT AVBL
MAKAPULAPAI*   NOT AVBL
MOLOKAI 1*     NOT AVBL
PUU ALII*        N/A     69  66  91 CALM        N/A
$$

HIZ016-262200-
KAHOOLAWE-

CITY           SKY/WX    TMP DP  RH WIND       PRES   REMARKS
KAHOOLAWE*     NOT AVBL
HAKIOAWA*        N/A     79  66  64 MISG      30.45S
HONOKANAIA*      N/A     82  70  66 W7        30.04S
KANELOA*         N/A     81  68  65 MISG      29.25S
KEALIALALO*      N/A     79  66  65 NW8G17    30.03F
LUA MAKIKA*    NOT AVBL
$$

HIZ014>015-262200-
LANAI-

CITY           SKY/WX    TMP DP  RH WIND       PRES   REMARKS
LANAI CITY     CLOUDY    73  70  88 SW9       30.09S
LANAI 1*       NOT AVBL
$$

HIZ017>028-262200-
MAUI-

CITY           SKY/WX    TMP DP  RH WIND       PRES   REMARKS
KAHULUI        PTSUNNY   85  69  58 N10       30.02S
KAPALUA-W MAUI MOSUNNY   81  70  69 W9        30.04
HANA AIRPORT   MOSUNNY   77  68  73 NW5       30.04F
HANA*            N/A     81 N/A N/A NW6         N/A
HALEAKALA SUMM   N/A     54  45  71 W9          N/A
MAALAEA BAY*   NOT AVBL
HALEAKALA*     NOT AVBL
KAUPO GAP*     NOT AVBL
KULA 1*          N/A     62  55  79 NW6         N/A
$$

HIZ023>026-262200-
BIG ISLAND OF HAWAII COAST AND LOWER SLOPES-

CITY           SKY/WX    TMP DP  RH WIND       PRES   REMARKS
KAILUA KONA    MOSUNNY   83  68  60 NW10      30.00S
HILO           PTSUNNY   82  70  66 SE14      30.01F
HONOKAA*       NOT AVBL
KAWAIHAE MWT*    N/A     81 N/A N/A W8          N/A
KAWAIHAE*        N/A     79 N/A N/A W9          N/A
SOUTH POINT*     N/A     75 N/A N/A E14G21      N/A
UPOLU AIRPORT*   N/A    N/A N/A N/A W5          N/A
KAMUELA*       PTCLDY    79  61  53 W8        30.11F
HAKALAU*         N/A     61  57  86 E3G12       N/A
KALOKO-HONOKO*   N/A     84  68  58 W10       29.99
PALI 2*          N/A     66  64  94 S7          N/A
KEALAKOMO*       N/A     75  70  83 E8          N/A
KAUPULEHU*     NOT AVBL
KAPAPALA*        N/A     74  66  76 SE6G12      N/A
LOWER KAHUKU*    N/A     68  63  83 SE3G12      N/A
PUHE CS*         N/A     82  70  65 W6          N/A
PUHO CS*         N/A     82  65  56 W3          N/A
PTA KEAMUKU*     N/A     75  57  53 CALM        N/A
WAIKOLOA*      NOT AVBL
$$

HIZ027>028-262200-
BIG ISLAND OF HAWAII INTERIOR AND SUMMMITS-

CITY           SKY/WX    TMP DP  RH WIND       PRES   REMARKS
BRADSHAW FIELD SUNNY     67  55  65 W8        30.33S
MK VISITOR CEN NOT AVBL
MAUNA KEA*       N/A     43  23  45 N7          N/A
MAUNA LOA*       N/A     54  34  47 MISG        N/A
MAUNA LOA 1*   NOT AVBL
PTA KIPUKA*      N/A     72  52  49 N5G13       N/A
PTA RANGE 17*    N/A     48  36  61 W8G16       N/A
PTA WEST*        N/A     72  54  53 NW9         N/A
NENE CABIN*      N/A     57  50  77 SE5G12      N/A
AHUMOA*        NOT AVBL
PTA PORTABLE*  NOT AVBL
PUU MALI*        N/A     64  55  72 N8          N/A
$$

HIC003-262200-
NORTHWEST ISLANDS-

CITY           SKY/WX    TMP DP  RH WIND       PRES   REMARKS
MIDWAY ISLAND  CLOUDY    66  52  59 E20G26    30.39R
MIDWAY NOS*    NOT AVBL
FRENCH FRIGATE NOT AVBL
$$

PHZ110>124-180-262200-
BUOY REPORTS

STATION/POSITION TIME  TEMP    WIND        PRES    WAVE   SWELL
                       AIR SEA DIR/SP/G            HT/PER HT/DIR
                 (UTC) (F)     (DEG/KT/KT) (MB)    (FT/S) (FT/D)
BUOY 51001       NOT AVBL
BUOY 51101       2100   72 75   40/ 21/ 25 1018.2R  12/11  10/320
BUOY 51100       2000   69 75   20/ 19/ 25 1017.9
BUOY 51002       2100   78 79  100/ 12/ 14 1015.2F   7/10   7/100
BUOY 51003       2100   78 79  170/  8/ 10 1016.0R   6/ 9   5
BUOY 51004       2038   77 77  110/ 14/ 17 1016.0F   8/ 9   7/ 90
BARBERS PT BUOY  NOT AVBL
WAIMEA BAY BUOY  2100      78                N/A     4/ 9   2/350
KAILUA BAY BUOY  2100      78                N/A     5/ 9   2/100
LANAI BUOY       2100      78                N/A     3/ 7   2/170
BARBERS PT 2     2100      78                N/A     5/10   2/170
PAUWELA MAUI     2100      78                N/A     5/ 9   2/ 90
HILO             2100      77                N/A     7/ 9   2/100
KANEOHE BAY BUOY 2100      78                N/A     4/ 8   2/ 70
HANALEI KAUAI    2100      78                N/A     6/ 9   2/ 50
KAHULUI HARBOR   2100   78 79  360/  9/ 10 1016.2S
HONOLULU HARBOR  2100   78 80  220/  6/  9 1016.7S
KILO NALU        NOT AVBL
HILO HARBOR      2100   90 76  120/  9/ 12 1015.9F
MOKUOLOE         2100   84 78  170/  2/  4 1016.2F
NAWILIWILI       2100   72 78   30/  9/ 13 1016.9R
WHOTS BUOY       NOT AVBL
BUOY 51028       NOT AVBL
$$

......................KEY........................................
  SKY/WX - SKY CONDITIONS/PRESENT WEATHER
  TMP    - TEMPERATURE IN FAHRENHEIT
  DWPT   - DEWPOINT IN FAHRENHEIT
  RH     - RELATIVE HUMIDITY IN PERCENT
  WIND   - DIRECTION AND SPEED /MPH FOR ISLANDS...KTS FOR BUOYS/
  PRES   - MEAN SEA LEVEL PRESSURE IN INCHES OF HG
  VSB    - VISIBILITY IN MILES
  HX     - HEAT INDEX
  WCI    - WIND CHILL INDEX
  VRB    - VARIABLE WIND DIRECTION
  N/A    - NOT AVAILABLE


USA.gov is the U.S. government's official web portal to all federal, state and local government web resources and services.